Regional Weather Roundup
Issued by NWS Sioux Falls, SD

Home | Current Version | Previous Version | Text Only | Print | Product List | Glossary On
Versions: 1 2 3 4 5 6 7 8 9 10 11 12 13 14 15 16 17 18 19 20 21 22 23 24 25 26 27 28 29 30 31 32 33 34 35 36 37 38 39 40 41 42 43 44 45 46 47 48 49 50
000
ASUS43 KFSD 251710
RWRFSD

WEATHER ROUNDUP FOR SE SOUTH DAKOTA/SW MINNESOTA/NW IOWA
NATIONAL WEATHER SERVICE SIOUX FALLS SD
1200 PM CDT MON SEP 25 2017

NOTE: "FAIR" INDICATES FEW OR NO CLOUDS BELOW 12,000 FEET WITH NO
SIGNIFICANT WEATHER AND OR OBSTRUCTIONS TO VISIBILITY.


SDZ038>040-050-052>070-251800-
SOUTHEAST SOUTH DAKOTA

CITY           SKY/WX    TMP DP  RH WIND       PRES   REMARKS
BROOKINGS      CLOUDY    51  48  89 N9        30.07S
CHAMBERLAIN    CLOUDY    52  48  86 N7        30.12R
HURON          CLOUDY    52  48  86 N10       30.09R
MADISON        CLOUDY    50  50 100 NE9       30.06F
MITCHELL       CLOUDY    54  51  90 N7        30.08S
SIOUX FALLS    CLOUDY    54  53  97 NE10      30.05S FOG
WINNER         CLOUDY    52  47  83 N9        30.12S
YANKTON        LGT RAIN  54  52  93 N12       30.03F
$$

MNZ071-072-080-081-089-090-097-098-251800-
SOUTHWEST MINNESOTA

CITY           SKY/WX    TMP DP  RH WIND       PRES   REMARKS
FAIRMONT       CLOUDY    57  55  93 N8        30.01S
JACKSON        LGT RAIN  54  54 100 VRB7      30.03S
LUVERNE        CLOUDY    52  46  82 N9        30.05S
MARSHALL       CLOUDY    53  49  86 N14       30.06F
MONTEVIDEO     CLOUDY    55  52  88 NE8       30.06F
PIPESTONE      CLOUDY    52  50  93 NE14      30.05S
REDWOOD FALLS  CLOUDY    57  52  83 N8        30.04F
TRACY          CLOUDY    53  52  96 N10       30.05F
WORTHINGTON    CLOUDY    53  51  93 N12       30.04S
$$

IAZ001>003-012>014-020>022-031-032-NEZ013-014-SDZ071-251800-
NORTHWEST IOWA

CITY           SKY/WX    TMP DP  RH WIND       PRES   REMARKS
CHEROKEE       DRIZZLE   57  57 100 N12       29.99F
DENISON        CLOUDY    66  66 100 NE7       29.97S
ESTHERVILLE    LGT RAIN  55  55 100 N10       30.01R
LE MARS        CLOUDY    57  55  94 N10       30.01S
ORANGE CITY    CLOUDY    55  55 100 NE7G16    30.01F FOG
SHELDON        FOG       54  54 100 N10       30.01R VSB 1
SIOUX CITY     RAIN      57  57 100 NW10      30.02R FOG
SPENCER        CLOUDY    57  55  93 N9        30.01F
STORM LAKE     LGT RAIN  59  57  94 NE8       29.98F
$$

ABBREVIATIONS USED IN REMARKS
   TC - TEMPERATURE IN CELSIUS
  WCI - WIND CHILL INDEX
   HX - HEAT INDEX
  VSB - VISIBILITY




USA.gov is the U.S. government's official web portal to all federal, state and local government web resources and services.